TimeEDT,TemperatureF,Dew PointF,Humidity,Sea Level PressureIn,VisibilityMPH,Wind Direction,Wind SpeedMPH,Gust SpeedMPH,PrecipitationIn,Events,Conditions,WindDirDegrees,DateUTC
12:15 AM,49.8,31.3,49,30.11,10.0,SE,8.1,-,N/A,,Overcast,130,2013-05-14 04:15:00
12:35 AM,49.3,31.5,50,30.11,10.0,SE,6.9,-,N/A,,Scattered Clouds,130,2013-05-14 04:35:00
12:55 AM,49.1,31.8,51,30.11,10.0,SE,4.6,-,N/A,,Scattered Clouds,140,2013-05-14 04:55:00
1:15 AM,49.8,32.4,51,30.10,10.0,SSE,4.6,-,N/A,,Mostly Cloudy,150,2013-05-14 05:15:00
1:35 AM,50.4,32.2,50,30.10,10.0,SSE,4.6,-,N/A,,Overcast,150,2013-05-14 05:35:00
1:55 AM,50.7,32.0,49,30.09,7.0,SSE,5.8,-,N/A,,Overcast,160,2013-05-14 05:55:00
2:15 AM,50.2,32.5,51,30.08,10.0,South,5.8,-,N/A,,Mostly Cloudy,170,2013-05-14 06:15:00
2:35 AM,50.2,33.3,52,30.08,7.0,South,8.1,-,N/A,,Overcast,190,2013-05-14 06:35:00
2:55 AM,50.5,33.3,52,30.07,10.0,South,5.8,-,N/A,,Mostly Cloudy,190,2013-05-14 06:55:00
3:15 AM,50.7,33.8,52,30.06,10.0,SSW,8.1,-,N/A,,Scattered Clouds,200,2013-05-14 07:15:00
3:35 AM,51.1,34.3,53,30.06,10.0,South,6.9,-,N/A,,Mostly Cloudy,190,2013-05-14 07:35:00
3:55 AM,51.8,34.7,52,30.05,10.0,SSW,9.2,-,N/A,,Overcast,200,2013-05-14 07:55:00
4:15 AM,51.6,35.2,54,30.04,10.0,South,8.1,-,N/A,,Overcast,190,2013-05-14 08:15:00
4:35 AM,51.4,35.2,54,30.04,10.0,South,9.2,-,N/A,,Mostly Cloudy,190,2013-05-14 08:35:00
4:55 AM,51.3,35.4,55,30.02,10.0,South,9.2,-,N/A,,Scattered Clouds,190,2013-05-14 08:55:00
5:15 AM,51.3,35.2,54,30.02,10.0,South,9.2,-,N/A,,Scattered Clouds,190,2013-05-14 09:15:00
5:35 AM,50.9,35.2,55,30.02,7.0,South,9.2,-,N/A,,Mostly Cloudy,190,2013-05-14 09:35:00
5:55 AM,51.3,35.6,55,30.02,10.0,South,8.1,-,N/A,,Overcast,190,2013-05-14 09:55:00
6:15 AM,51.6,35.4,54,30.02,10.0,South,8.1,-,N/A,,Overcast,190,2013-05-14 10:15:00
6:35 AM,51.6,35.8,55,30.02,7.0,South,9.2,-,N/A,,Overcast,190,2013-05-14 10:35:00
6:55 AM,52.2,35.6,53,30.02,10.0,South,10.4,-,N/A,,Overcast,180,2013-05-14 10:55:00
7:15 AM,52.3,35.4,53,30.02,10.0,South,11.5,-,N/A,,Overcast,190,2013-05-14 11:15:00
7:35 AM,52.7,35.2,52,30.02,7.0,South,10.4,-,N/A,,Overcast,180,2013-05-14 11:35:00
7:55 AM,53.2,35.1,50,30.01,10.0,South,13.8,-,N/A,,Overcast,180,2013-05-14 11:55:00
8:15 AM,54.0,34.7,48,30.01,10.0,South,13.8,-,N/A,,Overcast,180,2013-05-14 12:15:00
8:35 AM,54.9,34.7,47,30.01,10.0,South,12.7,-,N/A,,Overcast,190,2013-05-14 12:35:00
8:55 AM,55.8,34.9,45,29.99,7.0,South,16.1,21.9,N/A,,Mostly Cloudy,190,2013-05-14 12:55:00
9:15 AM,57.0,35.4,44,29.99,10.0,South,15.0,20.7,N/A,,Scattered Clouds,190,2013-05-14 13:15:00
9:35 AM,59.2,36.1,42,29.99,7.0,South,17.3,21.9,N/A,,Scattered Clouds,180,2013-05-14 13:35:00
9:55 AM,61.2,36.3,40,29.97,7.0,South,16.1,25.3,N/A,,Clear,190,2013-05-14 13:55:00
10:15 AM,62.8,36.5,38,29.94,7.0,SSW,23.0,29.9,N/A,,Scattered Clouds,200,2013-05-14 14:15:00
10:35 AM,63.9,37.6,38,29.93,7.0,SSW,23.0,28.8,N/A,,Scattered Clouds,200,2013-05-14 14:35:00
10:55 AM,64.2,38.8,39,29.92,7.0,SSW,23.0,29.9,N/A,,Scattered Clouds,200,2013-05-14 14:55:00
11:15 AM,64.6,39.9,40,29.91,7.0,SSW,23.0,29.9,N/A,,Mostly Cloudy,200,2013-05-14 15:15:00
11:35 AM,65.1,40.5,40,29.91,10.0,SSW,21.9,28.8,N/A,,Mostly Cloudy,200,2013-05-14 15:35:00
11:55 AM,66.7,41.7,40,29.90,10.0,SSW,19.6,25.3,N/A,,Scattered Clouds,210,2013-05-14 15:55:00
12:15 PM,68.4,42.8,40,29.89,10.0,SSW,23.0,32.2,N/A,,Scattered Clouds,210,2013-05-14 16:15:00
12:35 PM,69.3,43.0,39,29.88,10.0,SSW,21.9,27.6,N/A,,Clear,200,2013-05-14 16:35:00
12:55 PM,70.5,44.2,39,29.86,7.0,SSW,24.2,33.4,N/A,,Scattered Clouds,210,2013-05-14 16:55:00
1:15 PM,72.0,45.1,38,29.85,10.0,SSW,20.7,28.8,N/A,,Scattered Clouds,210,2013-05-14 17:15:00
1:35 PM,73.9,46.4,37,29.84,10.0,SW,23.0,29.9,N/A,,Clear,220,2013-05-14 17:35:00
1:55 PM,75.7,46.6,35,29.84,10.0,SW,24.2,29.9,N/A,,Clear,220,2013-05-14 17:55:00
2:15 PM,77.2,46.4,34,29.83,7.0,SW,19.6,28.8,N/A,,Clear,230,2013-05-14 18:15:00
2:35 PM,78.1,46.8,33,29.83,10.0,SW,19.6,27.6,N/A,,Clear,230,2013-05-14 18:35:00
2:55 PM,79.3,47.7,33,29.83,10.0,WSW,20.7,25.3,N/A,,Clear,240,2013-05-14 18:55:00
3:15 PM,80.4,48.7,33,29.81,10.0,WSW,25.3,31.1,N/A,,Clear,240,2013-05-14 19:15:00
3:35 PM,81.5,49.6,33,29.81,10.0,WSW,26.5,33.4,N/A,,Clear,240,2013-05-14 19:35:00
3:55 PM,82.0,50.0,33,29.80,10.0,WSW,20.7,32.2,N/A,,Clear,240,2013-05-14 19:55:00
4:15 PM,82.6,50.4,33,29.79,7.0,WSW,17.3,27.6,N/A,,Clear,250,2013-05-14 20:15:00
4:35 PM,83.1,50.7,32,29.79,10.0,WSW,21.9,27.6,N/A,,Clear,250,2013-05-14 20:35:00
4:55 PM,83.3,50.9,32,29.80,10.0,WSW,21.9,27.6,N/A,,Clear,240,2013-05-14 20:55:00
5:15 PM,83.7,51.1,32,29.80,10.0,West,21.9,28.8,N/A,,Clear,270,2013-05-14 21:15:00
5:35 PM,83.7,51.3,32,29.81,10.0,WSW,19.6,-,N/A,,Clear,250,2013-05-14 21:35:00
5:55 PM,83.8,51.4,33,29.81,7.0,WNW,18.4,27.6,N/A,,Clear,290,2013-05-14 21:55:00
6:15 PM,83.8,51.6,33,29.81,10.0,West,18.4,-,N/A,,Clear,270,2013-05-14 22:15:00
6:35 PM,83.5,52.2,34,29.81,10.0,West,17.3,24.2,N/A,,Clear,270,2013-05-14 22:35:00
6:55 PM,83.3,52.9,35,29.81,10.0,West,18.4,-,N/A,,Clear,280,2013-05-14 22:55:00
7:15 PM,82.6,54.0,37,29.81,7.0,WSW,17.3,23.0,N/A,,Clear,250,2013-05-14 23:15:00
7:35 PM,81.9,54.3,39,29.81,7.0,West,19.6,-,N/A,,Clear,260,2013-05-14 23:35:00
7:55 PM,81.1,54.5,40,29.81,10.0,WSW,15.0,19.6,N/A,,Clear,250,2013-05-14 23:55:00
8:15 PM,80.2,55.0,42,29.81,10.0,WSW,10.4,-,N/A,,Clear,240,2013-05-15 00:15:00
8:35 PM,78.3,55.8,46,29.81,10.0,SW,10.4,-,N/A,,Clear,220,2013-05-15 00:35:00
8:55 PM,76.5,56.3,50,29.81,7.0,SW,10.4,-,N/A,,Clear,230,2013-05-15 00:55:00
9:15 PM,75.2,56.1,51,29.80,10.0,SW,11.5,-,N/A,,Clear,220,2013-05-15 01:15:00
9:35 PM,73.9,56.5,54,29.79,10.0,SSW,12.7,-,N/A,,Clear,210,2013-05-15 01:35:00
9:55 PM,73.0,56.8,57,29.79,10.0,SW,13.8,-,N/A,,Clear,220,2013-05-15 01:55:00
10:15 PM,73.2,57.2,57,29.80,10.0,SW,11.5,-,N/A,,Clear,220,2013-05-15 02:15:00
10:35 PM,73.0,57.2,57,29.81,10.0,SSW,10.4,-,N/A,,Clear,210,2013-05-15 02:35:00
10:55 PM,72.0,57.2,60,29.81,10.0,SW,12.7,-,N/A,,Clear,220,2013-05-15 02:55:00
11:15 PM,72.0,56.8,59,29.81,10.0,SW,15.0,-,N/A,,Clear,220,2013-05-15 03:15:00
11:35 PM,72.0,56.7,58,29.80,10.0,SW,15.0,-,N/A,,Clear,220,2013-05-15 03:35:00
11:55 PM,72.0,56.5,58,29.80,10.0,SW,16.1,-,N/A,,Clear,220,2013-05-15 03:55:00